Tracking 19245 objects as of 18-Aug-2018
HD Live streaming from Space Station
objects crossing your sky now

NOAA 16 DEB

Track NOAA 16 DEB now!
10-day predictions


NORAD ID: 41518
Int'l Code: 2000-055MS
Perigee: 813.1 km
Apogee: 862.0 km
Inclination: 98.9 °
Period: 101.5 minutes
Semi major axis: 7208 km
RCS: Unknown
Launch date: September 21, 2000
Source: United States (US)
Launch site: AIR FORCE WESTERN TEST RANGE (AFWTR)

Note: This is SATELLITE DEBRIS
aabbcc
Your satellite tracking list
Your tracking list is empty




NASA's NSSDC Master Catalog

Two Line Element Set (TLE):
1 41518U 00055MS  18227.44183549  .00001056  00000-0  52958-3 0  9991
2 41518  98.8573 306.2156 0033938 204.7230 155.2320 14.18501187120274
Source of the keplerian elements: AFSPC